| time (UTC) | temp F | wind direction | speed MPH | gust MPH | rain 1hr in | rain 24hr in | rain mn in | humidity % | barometer mb |
| 20260510174037 | 83 | 77 | 2.0 | 7.0 | 0.00 | 0.00 | 0.00 | 62 | 1015.2 |
| 20260510173537 | 83 | 58 | 3.0 | 12.0 | 0.00 | 0.00 | 0.00 | 62 | 1015.2 |
| 20260510173037 | 83 | 95 | 4.0 | 12.0 | 0.00 | 0.00 | 0.00 | 61 | 1015.2 |
| 20260510172535 | 83 | 239 | 5.0 | 12.0 | 0.00 | 0.00 | 0.00 | 65 | 1015.1 |
| 20260510172034 | 83 | 46 | 4.0 | 12.0 | 0.00 | 0.00 | 0.00 | 63 | 1015.0 |
| 20260510171537 | 82 | 261 | 4.0 | 11.0 | 0.00 | 0.00 | 0.00 | 64 | 1014.9 |
| 20260510171533 | 82 | 123 | 4.0 | 11.0 | 0.00 | 0.00 | 0.00 | 64 | 1014.9 |
| 20260510170533 | 82 | 111 | 3.0 | 17.0 | 0.00 | 0.00 | 0.00 | 63 | 1014.8 |
| 20260510170032 | 83 | 167 | 4.0 | 17.0 | 0.00 | 0.00 | 0.00 | 63 | 1014.7 |
| 20260510165532 | 82 | 186 | 6.0 | 17.0 | 0.00 | 0.00 | 0.00 | 65 | 1014.6 |
| 20260510165032 | 82 | 140 | 6.0 | 17.0 | 0.00 | 0.00 | 0.00 | 64 | 1014.4 |
| 20260510164532 | 82 | 105 | 5.0 | 15.0 | 0.00 | 0.00 | 0.00 | 65 | 1014.2 |
| 20260510164037 | 81 | 115 | 7.0 | 15.0 | 0.00 | 0.00 | 0.00 | 67 | 1013.9 |
| 20260510164033 | 82 | 92 | 5.0 | 15.0 | 0.00 | 0.00 | 0.00 | 66 | 1014.0 |
| 20260510163031 | 81 | 134 | 6.0 | 15.0 | 0.00 | 0.00 | 0.00 | 67 | 1013.9 |
| 20260510162532 | 82 | 114 | 5.0 | 13.0 | 0.00 | 0.00 | 0.00 | 67 | 1014.0 |
| 20260510162032 | 81 | 113 | 6.0 | 15.0 | 0.00 | 0.00 | 0.00 | 69 | 1013.9 |
| 20260510161531 | 80 | 137 | 7.0 | 15.0 | 0.00 | 0.00 | 0.00 | 70 | 1013.7 |
| 20260510161031 | 80 | 117 | 7.0 | 15.0 | 0.00 | 0.00 | 0.00 | 69 | 1013.8 |
| 20260510160534 | 80 | 162 | 8.0 | 19.0 | 0.00 | 0.00 | 0.00 | 69 | 1013.6 |
| 20260510160033 | 80 | 131 | 8.0 | 19.0 | 0.00 | 0.00 | 0.00 | 69 | 1013.5 |
| 20260510155533 | 80 | 205 | 9.0 | 19.0 | 0.00 | 0.00 | 0.00 | 70 | 1013.4 |
| 20260510155031 | 79 | 120 | 8.0 | 19.0 | 0.00 | 0.00 | 0.00 | 69 | 1013.4 |
| 20260510154531 | 79 | 139 | 7.0 | 20.0 | 0.00 | 0.00 | 0.00 | 69 | 1013.4 |
| 20260510154031 | 79 | 163 | 8.0 | 20.0 | 0.00 | 0.00 | 0.00 | 69 | 1013.4 |
| 20260510153529 | 78 | 131 | 8.0 | 16.0 | 0.00 | 0.00 | 0.00 | 70 | 1013.4 |
| 20260510153029 | 78 | 104 | 6.0 | 18.0 | 0.00 | 0.00 | 0.00 | 68 | 1013.4 |
| 20260510152529 | 78 | 91 | 6.0 | 18.0 | 0.00 | 0.00 | 0.00 | 70 | 1013.4 |
| 20260510152029 | 77 | 89 | 7.0 | 18.0 | 0.00 | 0.00 | 0.00 | 70 | 1013.5 |
| 20260510151530 | 76 | 114 | 8.0 | 18.0 | 0.00 | 0.00 | 0.00 | 69 | 1013.6 |
| 20260510151025 | 76 | 115 | 6.0 | 18.0 | 0.00 | 0.00 | 0.00 | 69 | 1013.8 |
| 20260510150526 | 76 | 139 | 5.0 | 18.0 | 0.00 | 0.00 | 0.00 | 68 | 1013.9 |
| 20260510150027 | 76 | 108 | 6.0 | 18.0 | 0.00 | 0.00 | 0.00 | 70 | 1013.9 |
| 20260510145524 | 75 | 115 | 7.0 | 18.0 | 0.00 | 0.00 | 0.00 | 70 | 1013.9 |
| 20260510145023 | 74 | 128 | 5.0 | 15.0 | 0.00 | 0.00 | 0.00 | 71 | 1014.0 |
| 20260510144523 | 74 | 104 | 5.0 | 11.0 | 0.00 | 0.00 | 0.00 | 72 | 1014.2 |
| 20260510144023 | 73 | 117 | 5.0 | 11.0 | 0.00 | 0.00 | 0.00 | 72 | 1014.4 |
| 20260510143524 | 73 | 106 | 6.0 | 11.0 | 0.00 | 0.00 | 0.00 | 73 | 1014.6 |
| 20260510143024 | 73 | 110 | 5.0 | 12.0 | 0.00 | 0.00 | 0.00 | 74 | 1014.6 |
| 20260510142527 | 72 | 126 | 6.0 | 12.0 | 0.00 | 0.00 | 0.00 | 75 | 1014.8 |
| 20260510142522 | 72 | 66 | 5.0 | 12.0 | 0.00 | 0.00 | 0.00 | 74 | 1014.7 |
| 20260510141522 | 71 | 91 | 6.0 | 12.0 | 0.00 | 0.00 | 0.00 | 75 | 1014.9 |
| 20260510141021 | 71 | 131 | 6.0 | 11.0 | 0.00 | 0.00 | 0.00 | 75 | 1014.9 |
| 20260510140526 | 71 | 78 | 6.0 | 13.0 | 0.00 | 0.00 | 0.00 | 75 | 1014.8 |
| 20260510140521 | 71 | 129 | 6.0 | 13.0 | 0.00 | 0.00 | 0.00 | 75 | 1014.8 |
| 20260510135522 | 71 | 112 | 6.0 | 13.0 | 0.00 | 0.00 | 0.00 | 76 | 1014.7 |
| 20260510135022 | 71 | 102 | 7.0 | 13.0 | 0.00 | 0.00 | 0.00 | 76 | 1014.7 |
| 20260510134521 | 71 | 98 | 7.0 | 12.0 | 0.00 | 0.00 | 0.00 | 76 | 1014.7 |
| 20260510134022 | 71 | 126 | 6.0 | 15.0 | 0.00 | 0.00 | 0.00 | 76 | 1014.7 |
| 20260510133523 | 70 | 82 | 7.0 | 15.0 | 0.00 | 0.00 | 0.00 | 76 | 1014.6 |
| 20260510133026 | 70 | 103 | 5.0 | 12.0 | 0.00 | 0.00 | 0.00 | 76 | 1014.6 |
| 20260510133022 | 70 | 108 | 6.0 | 13.0 | 0.00 | 0.00 | 0.00 | 76 | 1014.6 |
| 20260510132027 | 70 | 99 | 5.0 | 11.0 | 0.00 | 0.00 | 0.00 | 76 | 1014.5 |
| 20260510132022 | 70 | 82 | 5.0 | 12.0 | 0.00 | 0.00 | 0.00 | 76 | 1014.6 |
| 20260510131522 | 70 | 75 | 5.0 | 12.0 | 0.00 | 0.00 | 0.00 | 76 | 1014.6 |
| 20260510130522 | 70 | 95 | 4.0 | 11.0 | 0.00 | 0.00 | 0.00 | 75 | 1014.5 |
| 20260510130022 | 70 | 86 | 4.0 | 11.0 | 0.00 | 0.00 | 0.00 | 76 | 1014.5 |
| 20260510125520 | 69 | 103 | 4.0 | 11.0 | 0.00 | 0.00 | 0.00 | 77 | 1014.3 |
| 20260510125019 | 69 | 121 | 4.0 | 9.0 | 0.00 | 0.00 | 0.00 | 77 | 1014.3 |
| 20260510124519 | 69 | 93 | 1.0 | 7.0 | 0.00 | 0.00 | 0.00 | 77 | 1014.2 |
| 20260510124017 | 69 | 108 | 1.0 | 6.0 | 0.00 | 0.00 | 0.00 | 77 | 1014.3 |
| 20260510123518 | 0 | 0.0 | 0.0 | 0.00 | 0.00 | 0.00 | 1014.3 | ||
| 20260510123015 | 0 | 0.0 | 0.0 | 0.00 | 0.00 | 0.00 | 1014.3 | ||
| 20260510122515 | 0 | 0.0 | 0.0 | 0.00 | 0.00 | 0.00 | 1014.3 | ||
| 20260510122017 | 0 | 0.0 | 0.0 | 0.00 | 0.00 | 0.00 | 1014.3 | ||
| 20260510121520 | 0 | 0.0 | 0.0 | 0.00 | 0.00 | 0.00 | 1014.1 | ||
| 20260510121516 | 0 | 0.0 | 0.0 | 0.00 | 0.00 | 0.00 | 1014.2 | ||
| 20260510120419 | 0 | 0.0 | 0.0 | 0.00 | 0.00 | 0.00 | 1014.2 | ||
| 20260510115915 | 0 | 0.0 | 0.0 | 0.00 | 0.00 | 0.00 | 1014.1 | ||
| 20260510115321 | 0 | 0.0 | 0.0 | 0.00 | 0.00 | 0.00 | 1014.1 | ||
| 20260510115317 | 0 | 0.0 | 0.0 | 0.00 | 0.00 | 0.00 | 1014.0 | ||
| 20260510114313 | 0 | 0.0 | 0.0 | 0.00 | 0.00 | 0.00 | 1013.9 | ||
| 20260510113815 | 0 | 0.0 | 0.0 | 0.00 | 0.00 | 0.00 | 1013.9 | ||
| 20260510113315 | 0 | 0.0 | 0.0 | 0.00 | 0.00 | 0.00 | 1013.7 | ||
| 20260510112817 | 0 | 0.0 | 0.0 | 0.00 | 0.00 | 0.00 | 1013.6 | ||
| 20260510112813 | 0 | 0.0 | 0.0 | 0.00 | 0.00 | 0.00 | 1013.7 | ||
| 20260510112219 | 0 | 0.0 | 0.0 | 0.00 | 0.00 | 0.00 | 1013.5 | ||
| 20260510111214 | 0 | 0.0 | 0.0 | 0.00 | 0.00 | 0.00 | 1013.7 | ||
| 20260510110625 | 0 | 0.0 | 0.0 | 0.00 | 0.00 | 0.00 | 1013.7 | ||
| 20260510110620 | 0 | 0.0 | 0.0 | 0.00 | 0.00 | 0.00 | 1013.8 | ||
| 20260510105619 | 0 | 0.0 | 0.0 | 0.00 | 0.00 | 0.00 | 1013.8 | ||
| 20260510105118 | 0 | 0.0 | 0.0 | 0.00 | 0.00 | 0.00 | 1013.9 | ||
| 20260510104614 | 0 | 0.0 | 0.0 | 0.00 | 0.00 | 0.00 | 1013.8 | ||
| 20260510104114 | 0 | 0.0 | 0.0 | 0.00 | 0.00 | 0.00 | 1013.7 | ||
| 20260510103521 | 0 | 0.0 | 0.0 | 0.00 | 0.00 | 0.00 | 1014.1 | ||
| 20260510103019 | 0 | 0.0 | 0.0 | 0.00 | 0.00 | 0.00 | 1014.3 | ||
| 20260510102517 | 0 | 0.0 | 0.0 | 0.00 | 0.00 | 0.00 | 1014.1 | ||
| 20260510102017 | 70 | 89 | 1.0 | 1.0 | 0.00 | 0.00 | 0.00 | 50 | 1014.1 |
| 20260510101514 | 70 | 89 | 1.0 | 7.0 | 0.00 | 0.00 | 0.00 | 50 | 1013.9 |
| 20260510100936 | 70 | 89 | 1.0 | 7.0 | 0.00 | 0.00 | 0.00 | 50 | 1013.8 |
| 20260510100436 | 70 | 89 | 2.0 | 7.0 | 0.00 | 0.00 | 0.00 | 50 | 1013.6 |
| 20260510095935 | 71 | 49 | 2.0 | 7.0 | 0.00 | 0.00 | 0.00 | 50 | 1013.5 |
| 20260510095437 | 71 | 60 | 1.0 | 4.0 | 0.00 | 0.00 | 0.00 | 53 | 1013.4 |
| 20260510094937 | 71 | 68 | 0.0 | 4.0 | 0.00 | 0.00 | 0.00 | 56 | 1013.2 |
| 20260510094433 | 71 | 48 | 0.0 | 4.0 | 0.00 | 0.00 | 0.00 | 55 | 1013.0 |
| 20260510093934 | 71 | 79 | 1.0 | 4.0 | 0.00 | 0.00 | 0.00 | 54 | 1012.8 |
| 20260510093433 | 71 | 80 | 1.0 | 4.0 | 0.00 | 0.00 | 0.00 | 54 | 1012.5 |
| 20260510092932 | 71 | 74 | 0.0 | 3.0 | 0.00 | 0.00 | 0.00 | 55 | 1012.1 |
| 20260510092433 | 71 | 80 | 0.0 | 1.0 | 0.00 | 0.00 | 0.00 | 56 | 1011.9 |
| 20260510091934 | 71 | 82 | 0.0 | 1.0 | 0.00 | 0.00 | 0.00 | 59 | 1011.8 |
| 20260510091432 | 71 | 63 | 0.0 | 0.0 | 0.00 | 0.00 | 0.00 | 63 | 1011.7 |
| 20260510090932 | 71 | 63 | 0.0 | 0.0 | 0.00 | 0.00 | 0.00 | 66 | 1011.7 |
| 20260510090432 | 71 | 63 | 0.0 | 2.0 | 0.00 | 0.00 | 0.00 | 68 | 1011.5 |
| 20260510085940 | 71 | 63 | 1.0 | 2.0 | 0.00 | 0.00 | 0.00 | 71 | 1010.9 |
| 20260510085932 | 71 | 63 | 0.0 | 2.0 | 0.00 | 0.00 | 0.00 | 69 | 1011.4 |
| 20260510085432 | 71 | 63 | 1.0 | 2.0 | 0.00 | 0.00 | 0.00 | 69 | 1011.1 |
| 20260510084427 | 71 | 64 | 0.0 | 4.0 | 0.00 | 0.00 | 0.00 | 73 | 1010.8 |
| 20260510083928 | 71 | 63 | 0.0 | 4.0 | 0.00 | 0.00 | 0.00 | 74 | 1010.6 |
| 20260510083428 | 72 | 64 | 1.0 | 4.0 | 0.00 | 0.00 | 0.00 | 74 | 1010.7 |
| 20260510082926 | 72 | 62 | 1.0 | 4.0 | 0.00 | 0.00 | 0.00 | 74 | 1010.6 |
| 20260510082425 | 72 | 294 | 0.0 | 0.0 | 0.00 | 0.00 | 0.00 | 76 | 1010.5 |
| 20260510081924 | 72 | 294 | 0.0 | 0.0 | 0.00 | 0.00 | 0.00 | 77 | 1010.4 |
| 20260510081424 | 72 | 294 | 0.0 | 0.0 | 0.00 | 0.00 | 0.00 | 78 | 1010.3 |
| 20260510080922 | 72 | 294 | 0.0 | 0.0 | 0.00 | 0.00 | 0.00 | 79 | 1010.1 |
| 20260510080422 | 72 | 293 | 0.0 | 0.0 | 0.00 | 0.00 | 0.00 | 80 | 1010.1 |
| 20260510075922 | 72 | 293 | 0.0 | 0.0 | 0.00 | 0.00 | 0.00 | 81 | 1010.2 |
| 20260510075422 | 72 | 294 | 0.0 | 0.0 | 0.00 | 0.00 | 0.00 | 81 | 1010.3 |
| 20260510074922 | 72 | 294 | 0.0 | 2.0 | 0.00 | 0.00 | 0.00 | 82 | 1010.4 |
| 20260510074420 | 72 | 294 | 0.0 | 2.0 | 0.00 | 0.00 | 0.00 | 83 | 1010.7 |
| 20260510073922 | 73 | 73 | 0.0 | 2.0 | 0.00 | 0.00 | 0.00 | 83 | 1010.5 |
| 20260510073421 | 73 | 73 | 0.0 | 2.0 | 0.00 | 0.00 | 0.00 | 83 | 1010.4 |
| 20260510072921 | 73 | 327 | 0.0 | 0.0 | 0.00 | 0.00 | 0.00 | 83 | 1010.4 |
| 20260510072421 | 74 | 327 | 0.0 | 0.0 | 0.00 | 0.00 | 0.00 | 83 | 1010.5 |
| 20260510071922 | 74 | 327 | 0.0 | 0.0 | 0.00 | 0.00 | 0.00 | 83 | 1010.5 |
| 20260510071421 | 74 | 327 | 0.0 | 0.0 | 0.00 | 0.00 | 0.00 | 83 | 1010.4 |
| 20260510070922 | 74 | 327 | 0.0 | 5.0 | 0.00 | 0.00 | 0.00 | 83 | 1010.4 |
| 20260510070421 | 75 | 76 | 0.0 | 5.0 | 0.00 | 0.00 | 0.00 | 83 | 1010.3 |
| 20260510065922 | 75 | 180 | 1.0 | 6.0 | 0.00 | 0.00 | 0.00 | 83 | 1010.0 |
| 20260510065420 | 75 | 84 | 2.0 | 6.0 | 0.00 | 0.00 | 0.00 | 83 | 1009.7 |
| 20260510064922 | 74 | 161 | 2.0 | 6.0 | 0.00 | 0.00 | 0.00 | 83 | 1009.4 |
| 20260510064421 | 74 | 112 | 2.0 | 5.0 | 0.00 | 0.00 | 0.00 | 83 | 1009.2 |
| 20260510063925 | 74 | 182 | 2.0 | 6.0 | 0.00 | 0.00 | 0.00 | 83 | 1009.1 |
| 20260510063920 | 74 | 190 | 2.0 | 6.0 | 0.00 | 0.00 | 0.00 | 83 | 1009.1 |
| 20260510062918 | 74 | 131 | 2.0 | 5.0 | 0.00 | 0.00 | 0.00 | 83 | 1009.2 |
| 20260510062419 | 74 | 141 | 3.0 | 7.0 | 0.00 | 0.00 | 0.00 | 83 | 1009.3 |
| 20260510061917 | 74 | 150 | 3.0 | 7.0 | 0.00 | 0.00 | 0.00 | 83 | 1009.3 |
| 20260510061416 | 75 | 121 | 3.0 | 7.0 | 0.00 | 0.00 | 0.00 | 83 | 1009.5 |
| 20260510060914 | 75 | 108 | 3.0 | 7.0 | 0.00 | 0.00 | 0.00 | 82 | 1009.5 |
| 20260510060414 | 75 | 112 | 3.0 | 6.0 | 0.00 | 0.00 | 0.00 | 82 | 1009.6 |
| 20260510055915 | 75 | 124 | 3.0 | 6.0 | 0.00 | 0.00 | 0.00 | 82 | 1009.5 |
| 20260510055413 | 75 | 121 | 3.0 | 6.0 | 0.00 | 0.00 | 0.00 | 82 | 1009.5 |
| 20260510054916 | 75 | 102 | 3.0 | 6.0 | 0.00 | 0.00 | 0.00 | 82 | 1009.4 |
| 20260510054416 | 75 | 108 | 3.0 | 6.0 | 0.00 | 0.00 | 0.00 | 82 | 1009.4 |
| 20260510053916 | 75 | 101 | 3.0 | 6.0 | 0.00 | 0.00 | 0.00 | 81 | 1009.4 |
| 20260510053415 | 75 | 89 | 3.0 | 6.0 | 0.00 | 0.00 | 0.00 | 81 | 1009.3 |
| 20260510052920 | 75 | 113 | 3.0 | 8.0 | 0.00 | 0.00 | 0.00 | 80 | 1009.1 |
| 20260510052915 | 75 | 106 | 3.0 | 8.0 | 0.00 | 0.00 | 0.00 | 81 | 1009.1 |
| 20260510052536 | 75 | 149 | 3.0 | 8.0 | 0.00 | 0.00 | 0.00 | 80 | 1009.1 |
| 20260510051415 | 75 | 158 | 4.0 | 8.0 | 0.00 | 0.00 | 0.00 | 79 | 1009.0 |
| 20260510050917 | 75 | 120 | 4.0 | 7.0 | 0.00 | 0.00 | 0.00 | 78 | 1008.9 |
| 20260510050912 | 75 | 139 | 4.0 | 8.0 | 0.00 | 0.00 | 0.00 | 79 | 1009.0 |
| 20260510045916 | 75 | 110 | 3.0 | 7.0 | 0.00 | 0.00 | 0.00 | 78 | 1008.9 |
| 20260510045911 | 75 | 98 | 3.0 | 7.0 | 0.00 | 0.00 | 0.00 | 78 | 1008.9 |
| 20260510045529 | 76 | 131 | 3.0 | 7.0 | 0.00 | 0.00 | 0.00 | 78 | 1009.0 |
| 20260510044410 | 76 | 75 | 3.0 | 7.0 | 0.00 | 0.00 | 0.00 | 77 | 1009.1 |
| 20260510043911 | 76 | 136 | 3.0 | 7.0 | 0.00 | 0.00 | 0.00 | 77 | 1009.0 |
| 20260510043410 | 76 | 96 | 3.0 | 7.0 | 0.00 | 0.00 | 0.00 | 77 | 1008.9 |
| 20260510042911 | 76 | 99 | 3.0 | 9.0 | 0.00 | 0.00 | 0.00 | 77 | 1008.9 |
| 20260510042412 | 76 | 113 | 3.0 | 9.0 | 0.00 | 0.00 | 0.00 | 77 | 1008.8 |
| 20260510041914 | 76 | 105 | 3.0 | 9.0 | 0.00 | 0.00 | 0.00 | 77 | 1008.9 |
| 20260510041909 | 76 | 113 | 3.0 | 9.0 | 0.00 | 0.00 | 0.00 | 77 | 1008.8 |
| 20260510041530 | 76 | 103 | 3.0 | 6.0 | 0.00 | 0.00 | 0.00 | 75 | 1009.1 |
| 20260510040915 | 76 | 97 | 3.0 | 6.0 | 0.00 | 0.00 | 0.00 | 75 | 1009.1 |
| 20260510040910 | 76 | 110 | 3.0 | 6.0 | 0.00 | 0.00 | 0.00 | 76 | 1009.0 |
| 20260510035416 | 77 | 102 | 3.0 | 7.0 | 0.00 | 0.00 | 0.00 | 74 | 1009.3 |
| 20260510035410 | 76 | 120 | 3.0 | 6.0 | 0.00 | 0.00 | 0.00 | 75 | 1009.2 |
| 20260510034909 | 76 | 112 | 3.0 | 7.0 | 0.00 | 0.00 | 0.00 | 74 | 1009.3 |
| 20260510033909 | 77 | 103 | 3.0 | 7.0 | 0.00 | 0.00 | 0.00 | 73 | 1009.2 |
| 20260510033410 | 77 | 115 | 2.0 | 7.0 | 0.00 | 0.00 | 0.00 | 73 | 1009.2 |
| 20260510032910 | 77 | 79 | 2.0 | 3.0 | 0.00 | 0.00 | 0.00 | 73 | 1009.2 |
| 20260510032409 | 77 | 98 | 1.0 | 3.0 | 0.00 | 0.00 | 0.00 | 73 | 1009.2 |
| 20260510031919 | 77 | 91 | 0.0 | 4.0 | 0.00 | 0.00 | 0.00 | 73 | 1009.2 |
| 20260510031913 | 77 | 101 | 0.0 | 4.0 | 0.00 | 0.00 | 0.00 | 73 | 1009.2 |
| 20260510031535 | 77 | 110 | 0.0 | 4.0 | 0.00 | 0.00 | 0.00 | 73 | 1009.2 |
| 20260510030409 | 77 | 110 | 0.0 | 4.0 | 0.00 | 0.00 | 0.00 | 72 | 1009.2 |
| 20260510025909 | 77 | 105 | 0.0 | 3.0 | 0.00 | 0.00 | 0.00 | 72 | 1009.1 |
| 20260510025414 | 78 | 108 | 1.0 | 4.0 | 0.00 | 0.00 | 0.00 | 69 | 1008.8 |
| 20260510025409 | 77 | 113 | 1.0 | 3.0 | 0.00 | 0.00 | 0.00 | 71 | 1009.1 |
| 20260510024907 | 78 | 96 | 1.0 | 4.0 | 0.00 | 0.00 | 0.00 | 70 | 1009.1 |
| 20260510023908 | 78 | 83 | 0.0 | 3.0 | 0.00 | 0.00 | 0.00 | 69 | 1008.9 |
| 20260510023406 | 78 | 87 | 1.0 | 3.0 | 0.00 | 0.00 | 0.00 | 68 | 1008.9 |
| 20260510022908 | 79 | 89 | 1.0 | 3.0 | 0.00 | 0.00 | 0.00 | 68 | 1008.7 |
| 20260510022407 | 79 | 89 | 1.0 | 5.0 | 0.00 | 0.00 | 0.00 | 66 | 1008.6 |
| 20260510021915 | 80 | 89 | 2.0 | 5.0 | 0.00 | 0.00 | 0.00 | 64 | 1008.5 |
| 20260510021909 | 79 | 89 | 2.0 | 5.0 | 0.00 | 0.00 | 0.00 | 65 | 1008.6 |
| 20260510021528 | 80 | 70 | 2.0 | 5.0 | 0.00 | 0.00 | 0.00 | 62 | 1008.5 |
| 20260510021025 | 80 | 84 | 1.0 | 5.0 | 0.00 | 0.00 | 0.00 | 59 | 1008.4 |
| 20260510015910 | 80 | 75 | 0.0 | 0.0 | 0.00 | 0.00 | 0.00 | 56 | 1008.2 |
| 20260510015904 | 80 | 75 | 0.0 | 0.0 | 0.00 | 0.00 | 0.00 | 57 | 1008.3 |
| 20260510014904 | 80 | 75 | 0.0 | 0.0 | 0.00 | 0.00 | 0.00 | 55 | 1008.2 |
| 20260510014401 | 81 | 75 | 0.0 | 0.0 | 0.00 | 0.00 | 0.00 | 55 | 1008.1 |
| 20260510013907 | 82 | 75 | 0.0 | 0.0 | 0.00 | 0.00 | 0.00 | 55 | 1008.0 |
| 20260510013900 | 81 | 75 | 0.0 | 0.0 | 0.00 | 0.00 | 0.00 | 55 | 1008.1 |
| 20260510013400 | 81 | 75 | 0.0 | 0.0 | 0.00 | 0.00 | 0.00 | 55 | 1008.0 |
| 20260510012400 | 82 | 75 | 0.0 | 0.0 | 0.00 | 0.00 | 0.00 | 54 | 1008.0 |
| 20260510011858 | 82 | 75 | 0.0 | 0.0 | 0.00 | 0.00 | 0.00 | 54 | 1007.9 |
| 20260510011356 | 83 | 75 | 0.0 | 0.0 | 0.00 | 0.00 | 0.00 | 53 | 1008.0 |
| 20260510010857 | 83 | 75 | 0.0 | 0.0 | 0.00 | 0.00 | 0.00 | 53 | 1007.9 |
| 20260510010355 | 84 | 75 | 0.0 | 2.0 | 0.00 | 0.00 | 0.00 | 52 | 1007.9 |
| 20260510005854 | 84 | 75 | 0.0 | 2.0 | 0.00 | 0.00 | 0.00 | 51 | 1007.8 |
| 20260510005356 | 85 | 75 | 1.0 | 2.0 | 0.00 | 0.00 | 0.00 | 50 | 1007.8 |
| 20260510004902 | 86 | 75 | 0.0 | 0.0 | 0.00 | 0.00 | 0.00 | 47 | 1007.7 |
| 20260510004855 | 85 | 75 | 1.0 | 2.0 | 0.00 | 0.00 | 0.00 | 49 | 1007.8 |
| 20260510004356 | 86 | 75 | 0.0 | 2.0 | 0.00 | 0.00 | 0.00 | 48 | 1007.8 |
| 20260510003400 | 87 | 75 | 0.0 | 0.0 | 0.00 | 0.00 | 0.00 | 46 | 1007.7 |
| 20260510003356 | 87 | 75 | 0.0 | 0.0 | 0.00 | 0.00 | 0.00 | 46 | 1007.7 |
| 20260510002356 | 88 | 75 | 0.0 | 0.0 | 0.00 | 0.00 | 0.00 | 45 | 1007.6 |
| 20260510001856 | 88 | 75 | 0.0 | 0.0 | 0.00 | 0.00 | 0.00 | 45 | 1007.6 |
| 20260510001356 | 88 | 75 | 0.0 | 1.0 | 0.00 | 0.00 | 0.00 | 44 | 1007.6 |
| 20260510000855 | 88 | 75 | 0.0 | 1.0 | 0.00 | 0.00 | 0.00 | 42 | 1007.6 |
| 20260510000356 | 89 | 75 | 0.0 | 1.0 | 0.00 | 0.00 | 0.00 | 40 | 1007.6 |
| 20260509235855 | 89 | 75 | 0.0 | 1.0 | 0.00 | 0.00 | 0.00 | 39 | 1007.5 |
| 20260509235355 | 90 | 76 | 0.0 | 0.0 | 0.00 | 0.00 | 0.00 | 38 | 1007.5 |
| 20260509234901 | 90 | 79 | 0.0 | 0.0 | 0.00 | 0.00 | 0.00 | 42 | 1007.4 |
| 20260509234856 | 90 | 79 | 0.0 | 0.0 | 0.00 | 0.00 | 0.00 | 40 | 1007.4 |
| 20260509233853 | 90 | 98 | 0.0 | 1.0 | 0.00 | 0.00 | 0.00 | 42 | 1007.4 |
| 20260509233350 | 90 | 69 | 0.0 | 1.0 | 0.00 | 0.00 | 0.00 | 41 | 1007.4 |
| 20260509232848 | 90 | 354 | 0.0 | 1.0 | 0.00 | 0.00 | 0.00 | 41 | 1007.4 |
| 20260509232347 | 90 | 68 | 0.0 | 5.0 | 0.00 | 0.00 | 0.00 | 42 | 1007.4 |
| 20260509231846 | 91 | 54 | 0.0 | 5.0 | 0.00 | 0.00 | 0.00 | 43 | 1007.4 |
| 20260509231349 | 91 | 110 | 1.0 | 5.0 | 0.00 | 0.00 | 0.00 | 44 | 1007.4 |
| 20260509231345 | 91 | 26 | 1.0 | 5.0 | 0.00 | 0.00 | 0.00 | 42 | 1007.4 |
| 20260509230843 | 91 | 335 | 1.0 | 5.0 | 0.00 | 0.00 | 0.00 | 42 | 1007.4 |
| 20260509225844 | 91 | 1 | 1.0 | 4.0 | 0.00 | 0.00 | 0.00 | 43 | 1007.5 |
| 20260509225343 | 91 | 343 | 1.0 | 5.0 | 0.00 | 0.00 | 0.00 | 44 | 1007.5 |
| 20260509224843 | 91 | 333 | 0.0 | 5.0 | 0.00 | 0.00 | 0.00 | 45 | 1007.4 |
| 20260509224343 | 90 | 325 | 0.0 | 7.0 | 0.00 | 0.00 | 0.00 | 45 | 1007.4 |
| 20260509223843 | 90 | 66 | 1.0 | 7.0 | 0.00 | 0.00 | 0.00 | 47 | 1007.4 |
| 20260509223344 | 90 | 91 | 1.0 | 7.0 | 0.00 | 0.00 | 0.00 | 46 | 1007.4 |
| 20260509222848 | 91 | 37 | 0.0 | 6.0 | 0.00 | 0.00 | 0.00 | 46 | 1007.4 |
| 20260509222842 | 91 | 60 | 0.0 | 7.0 | 0.00 | 0.00 | 0.00 | 46 | 1007.4 |
| 20260509221843 | 91 | 41 | 0.0 | 6.0 | 0.00 | 0.00 | 0.00 | 44 | 1007.4 |
| 20260509221343 | 91 | 331 | 1.0 | 6.0 | 0.00 | 0.00 | 0.00 | 46 | 1007.4 |
| 20260509220841 | 91 | 355 | 2.0 | 6.0 | 0.00 | 0.00 | 0.00 | 46 | 1007.4 |
| 20260509220338 | 91 | 34 | 1.0 | 6.0 | 0.00 | 0.00 | 0.00 | 46 | 1007.3 |
| 20260509215839 | 91 | 342 | 1.0 | 6.0 | 0.00 | 0.00 | 0.00 | 47 | 1007.3 |
| 20260509215339 | 91 | 328 | 0.0 | 6.0 | 0.00 | 0.00 | 0.00 | 45 | 1007.4 |
| 20260509214844 | 91 | 356 | 2.0 | 6.0 | 0.00 | 0.00 | 0.00 | 48 | 1007.5 |
| 20260509214839 | 91 | 356 | 1.0 | 6.0 | 0.00 | 0.00 | 0.00 | 46 | 1007.5 |
| 20260509213845 | 90 | 124 | 1.0 | 5.0 | 0.00 | 0.00 | 0.00 | 45 | 1007.7 |
| 20260509213837 | 90 | 337 | 2.0 | 6.0 | 0.00 | 0.00 | 0.00 | 49 | 1007.5 |
| 20260509213337 | 90 | 291 | 2.0 | 6.0 | 0.00 | 0.00 | 0.00 | 46 | 1007.6 |
| 20260509212838 | 90 | 347 | 1.0 | 6.0 | 0.00 | 0.00 | 0.00 | 48 | 1007.6 |
| 20260509211843 | 91 | 295 | 1.0 | 6.0 | 0.00 | 0.00 | 0.00 | 41 | 1007.9 |
| 20260509211838 | 90 | 303 | 2.0 | 6.0 | 0.00 | 0.00 | 0.00 | 42 | 1007.8 |
| 20260509210836 | 91 | 319 | 1.0 | 4.0 | 0.00 | 0.00 | 0.00 | 44 | 1007.9 |
| 20260509210336 | 91 | 30 | 1.0 | 4.0 | 0.00 | 0.00 | 0.00 | 48 | 1008.0 |
| 20260509205838 | 90 | 26 | 2.0 | 7.0 | 0.00 | 0.00 | 0.00 | 46 | 1008.1 |
| 20260509205341 | 90 | 316 | 2.0 | 7.0 | 0.00 | 0.00 | 0.00 | 46 | 1008.2 |
| 20260509205337 | 90 | 295 | 2.0 | 7.0 | 0.00 | 0.00 | 0.00 | 44 | 1008.2 |
| 20260509204336 | 90 | 338 | 2.0 | 7.0 | 0.00 | 0.00 | 0.00 | 47 | 1008.2 |
| 20260509203841 | 91 | 351 | 1.0 | 6.0 | 0.00 | 0.00 | 0.00 | 50 | 1008.3 |
| 20260509203836 | 91 | 53 | 1.0 | 6.0 | 0.00 | 0.00 | 0.00 | 48 | 1008.3 |
| 20260509202837 | 91 | 82 | 1.0 | 7.0 | 0.00 | 0.00 | 0.00 | 50 | 1008.4 |
| 20260509202334 | 91 | 94 | 0.0 | 7.0 | 0.00 | 0.00 | 0.00 | 52 | 1008.4 |
| 20260509201834 | 90 | 283 | 2.0 | 7.0 | 0.00 | 0.00 | 0.00 | 51 | 1008.5 |
| 20260509201334 | 89 | 18 | 1.0 | 7.0 | 0.00 | 0.00 | 0.00 | 49 | 1008.5 |
| 20260509200834 | 90 | 278 | 0.0 | 4.0 | 0.00 | 0.00 | 0.00 | 50 | 1008.6 |
| 20260509200334 | 89 | 60 | 1.0 | 5.0 | 0.00 | 0.00 | 0.00 | 50 | 1008.7 |
| 20260509195840 | 89 | 328 | 2.0 | 6.0 | 0.00 | 0.00 | 0.00 | 50 | 1008.8 |
| 20260509195835 | 89 | 49 | 2.0 | 5.0 | 0.00 | 0.00 | 0.00 | 52 | 1008.8 |
| 20260509194834 | 89 | 53 | 2.0 | 6.0 | 0.00 | 0.00 | 0.00 | 49 | 1008.8 |
| 20260509194340 | 90 | 77 | 1.0 | 8.0 | 0.00 | 0.00 | 0.00 | 50 | 1009.0 |
| 20260509194334 | 89 | 337 | 2.0 | 6.0 | 0.00 | 0.00 | 0.00 | 50 | 1008.9 |
| 20260509193332 | 89 | 77 | 2.0 | 8.0 | 0.00 | 0.00 | 0.00 | 52 | 1009.0 |
| 20260509192838 | 89 | 37 | 1.0 | 7.0 | 0.00 | 0.00 | 0.00 | 53 | 1009.1 |
| 20260509192833 | 88 | 269 | 3.0 | 8.0 | 0.00 | 0.00 | 0.00 | 53 | 1009.0 |
| 20260509192332 | 89 | 84 | 2.0 | 8.0 | 0.00 | 0.00 | 0.00 | 51 | 1009.1 |
| 20260509191333 | 88 | 8 | 2.0 | 7.0 | 0.00 | 0.00 | 0.00 | 52 | 1009.1 |
| 20260509190832 | 88 | 44 | 4.0 | 10.0 | 0.00 | 0.00 | 0.00 | 53 | 1009.1 |
| 20260509190331 | 88 | 326 | 3.0 | 10.0 | 0.00 | 0.00 | 0.00 | 53 | 1009.1 |
| 20260509185828 | 88 | 319 | 2.0 | 10.0 | 0.00 | 0.00 | 0.00 | 54 | 1009.2 |
| 20260509185329 | 88 | 272 | 3.0 | 10.0 | 0.00 | 0.00 | 0.00 | 55 | 1009.1 |
| 20260509184829 | 88 | 341 | 2.0 | 8.0 | 0.00 | 0.00 | 0.00 | 53 | 1009.2 |
| 20260509184328 | 87 | 47 | 2.0 | 8.0 | 0.00 | 0.00 | 0.00 | 54 | 1009.1 |
| 20260509183827 | 87 | 325 | 2.0 | 8.0 | 0.00 | 0.00 | 0.00 | 54 | 1009.2 |
| 20260509183329 | 87 | 56 | 3.0 | 8.0 | 0.00 | 0.00 | 0.00 | 56 | 1009.2 |
| 20260509182834 | 87 | 351 | 2.0 | 8.0 | 0.00 | 0.00 | 0.00 | 55 | 1009.3 |
| 20260509182829 | 87 | 302 | 3.0 | 8.0 | 0.00 | 0.00 | 0.00 | 55 | 1009.3 |
| 20260509181828 | 87 | 321 | 2.0 | 9.0 | 0.00 | 0.00 | 0.00 | 55 | 1009.3 |
| 20260509181329 | 86 | 22 | 4.0 | 9.0 | 0.00 | 0.00 | 0.00 | 55 | 1009.4 |
| 20260509180828 | 86 | 284 | 4.0 | 9.0 | 0.00 | 0.00 | 0.00 | 55 | 1009.5 |
| 20260509180328 | 85 | 301 | 4.0 | 9.0 | 0.00 | 0.00 | 0.00 | 55 | 1009.4 |
| 20260509175835 | 86 | 312 | 3.0 | 10.0 | 0.00 | 0.00 | 0.00 | 55 | 1009.6 |
| 20260509175829 | 86 | 10 | 4.0 | 10.0 | 0.00 | 0.00 | 0.00 | 55 | 1009.6 |
| 20260509174827 | 86 | 338 | 3.0 | 10.0 | 0.00 | 0.00 | 0.00 | 56 | 1009.5 |
| 20260509174335 | 86 | 77 | 2.0 | 9.0 | 0.00 | 0.00 | 0.00 | 59 | 1009.6 |
| 20260509174329 | 86 | 344 | 3.0 | 10.0 | 0.00 | 0.00 | 0.00 | 56 | 1009.6 |